GW4770 Weather Reports


Display with metric or nautical units.
time (UTC)temp
F
wind
direction
speed
MPH
gust
MPH
rain 1hr
in
rain 24hr
in
rain mn
in
humidity
%
barometer
mb
20260504221017 68 3 1.0 1.0 0.00 0.34 0.00 100 1022.2
20260504220018 68 315 0.0 1.0 0.00 0.34 0.00 100 1022.5
20260504215018 68 6 0.0 1.0 0.00 0.34 0.00 100 1022.2
20260504214017 69 301 1.0 1.0 0.00 0.34 0.00 100 1022.0
20260504213018 69 305 0.0 1.0 0.00 0.34 0.00 100 1021.7
20260504212017 69 180 0.0 1.0 0.00 0.34 0.00 100 1021.3
20260504211117 69 259 0.0 1.0 0.00 0.34 0.00 100 1021.0
20260504210018 69 270 0.0 1.0 0.00 0.34 0.00 100 1021.2
20260504205016 69 279 0.0 1.0 0.00 0.34 0.00 100 1021.2
20260504204037 69 270 1.0 1.0 0.00 0.34 0.00 100 1021.2
20260504202019 69 283 1.0 1.0 0.00 0.34 0.00 100 1021.5
20260504201038 69 239 0.0 1.0 0.00 0.34 0.00 100 1021.4
20260504200018 69 261 0.0 1.0 0.00 0.34 0.00 100 1021.1
20260504195017 69 285 1.0 1.0 0.00 0.34 0.00 100 1021.1
20260504194019 69 293 1.0 1.0 0.00 0.34 0.00 100 1021.2
20260504193017 70 196 0.0 1.0 0.00 0.34 0.00 100 1020.6
20260504192017 70 231 1.0 2.0 0.00 0.34 0.00 100 1020.8
20260504191016 70 222 1.0 2.0 0.00 0.34 0.00 100 1020.8
20260504190023 69 246 1.0 2.0 0.00 0.34 0.00 100 1021.2
20260504185017 69 259 1.0 3.0 0.00 0.34 0.00 100 1021.2
20260504184016 70 242 1.0 2.0 0.00 0.34 0.00 100 1021.3
20260504183017 70 253 1.0 3.0 0.00 0.34 0.00 100 1021.5
20260504182017 70 259 1.0 2.0 0.00 0.34 0.34 100 1021.8
20260504181036 70 298 1.0 1.0 0.00 0.34 0.34 100 1021.9
20260504180017 70 313 0.0 1.0 0.00 0.34 0.34 100 1021.5
20260504175018 70 41 1.0 2.0 0.00 0.34 0.34 100 1021.8
20260504174016 70 54 1.0 3.0 0.00 0.34 0.34 100 1021.6
20260504173017 71 55 1.0 1.0 0.00 0.34 0.34 100 1021.0
20260504172016 71 76 2.0 4.0 0.00 0.34 0.34 100 1020.0
20260504171017 71 29 1.0 2.0 0.00 0.34 0.34 97 1019.7
20260504151017 69 39 2.0 3.0 0.00 0.33 0.33 100 1022.4
20260504141018 69 8 1.0 2.0 0.01 0.33 0.33 100 1021.6
20260504081017 74 95 3.0 6.0 0.19 0.19 0.19 100 1015.3
20260504050017 92 269 2.0 6.0 0.00 0.00 0.00 48 1001.1
20260504045016 91 265 2.0 4.0 0.00 0.00 0.00 50 1002.6
20260504044016 92 273 2.0 4.0 0.00 0.00 0.00 50 1001.5
20260504043017 90 266 2.0 5.0 0.00 0.00 0.00 53 1003.5
20260504042016 89 295 2.0 4.0 0.00 0.00 0.00 54 1004.5
20260504041017 88 317 1.0 4.0 0.00 0.00 0.00 55 1005.1
20260504040017 88 293 2.0 4.0 0.00 0.00 0.00 57 1005.2
20260504035018 88 258 2.0 5.0 0.00 0.00 0.00 60 1005.3
20260504034017 86 293 1.0 4.0 0.00 0.00 0.00 69 1007.2
20260504033017 84 298 2.0 4.0 0.00 0.00 0.00 70 1008.2
20260504032018 86 266 2.0 4.0 0.00 0.00 0.00 69 1006.7
20260504031017 84 282 1.0 4.0 0.00 0.00 0.00 77 1008.2
20260504030018 84 280 1.0 3.0 0.00 0.00 0.00 76 1008.4
20260504025016 83 259 1.0 4.0 0.00 0.00 0.00 81 1008.5
20260504024017 82 251 1.0 4.0 0.00 0.00 0.00 88 1009.5
20260504023018 82 261 1.0 3.0 0.00 0.00 0.00 94 1009.6
20260504022018 80 250 1.0 3.0 0.00 0.00 0.00 100 1011.0
20260504021017 79 276 1.0 4.0 0.00 0.00 0.00 100 1011.8
20260504020018 78 285 1.0 3.0 0.00 0.00 0.00 100 1013.4
20260504015036 76 268 1.0 4.0 0.00 0.00 0.00 100 1015.2
20260504013016 73 332 1.0 3.0 0.00 0.00 0.00 100 1017.8
20260504012018 71 62 1.0 3.0 0.00 0.00 0.00 100 1019.8
20260504011017 71 34 2.0 7.0 0.00 0.00 0.00 100 1020.4
20260504010016 70 40 1.0 4.0 0.00 0.00 0.00 100 1020.6
20260504005018 71 22 1.0 2.0 0.00 0.00 0.00 100 1020.2
20260504004037 70 36 1.0 4.0 0.00 0.00 0.00 100 1020.4
20260504003018 70 42 1.0 3.0 0.00 0.00 0.00 100 1020.1
20260504002016 70 30 1.0 2.0 0.00 0.00 0.00 100 1019.8
20260504001017 70 352 0.0 1.0 0.00 0.00 0.00 100 1019.8
20260504000037 70 340 0.0 1.0 0.00 0.00 0.00 100 1019.7
20260503235017 70 13 0.0 1.0 0.00 0.00 0.00 100 1019.7
20260503234017 71 29 1.0 2.0 0.00 0.00 0.00 100 1019.4
20260503233036 71 32 1.0 2.0 0.00 0.00 0.00 100 1018.8
20260503232017 71 37 1.0 2.0 0.00 0.00 0.00 100 1019.2
20260503231016 71 54 0.0 1.0 0.00 0.00 0.00 100 1018.7
20260503230016 72 35 1.0 2.0 0.00 0.00 0.00 100 1018.3
20260503225037 72 49 1.0 1.0 0.00 0.00 0.00 100 1018.1
20260503223016 71 260 1.0 2.0 0.00 0.00 0.00 100 1017.7